{"data":{"norad_id":35943,"intl_designator":"2009-054B","name":"COMSATBW-1","alt_names":[],"object_type":"PAYLOAD","status":"ACTIVE","operator":null,"country":"GER","launch_date":"2009-10-01","launch_site_code":"FRGUI","launch_vehicle":null,"mission":null,"orbit_class":"UNKNOWN","rcs_meters":7.9433,"size_class":null,"mass_kg":null,"dimensions":null,"purposes":["comms"],"wikipedia_slug":null,"has_3d_model":false,"image_url":null,"decayed_at":null,"tle_current":{"epoch":"2026-05-25T04:02:38.036256Z","epoch_age_seconds":67370,"freshness":"FRESH","line1":"1 35943U 09054B   26145.16849579  .00000022  00000+0  00000+0 0  9991","line2":"2 35943   0.0669  89.7980 0003311 339.3620 297.2676  1.00273137 61079","mean_motion":1.00273137,"eccentricity":0.0003311,"inclination_deg":0.0669,"raan_deg":89.798,"arg_perigee_deg":339.362,"mean_anomaly_deg":297.2676,"bstar":0,"rev_number":6107,"period_min":1436.0775408871,"perigee_km":35772.255333508,"apogee_km":35800.176568032,"semimajor_km":42164.35295077,"source":"CELESTRAK","updated_at":"2026-05-25T13:38:13.866837Z"}}}